Truth Or Consequences, NM

8:08 AM MDT on June 26, 2017 (GMT -0600)
Truth Or Consequences Municipal

Weather History for KTCS - March, 2012

Change the Weather History Date:

Tuesday, March 20, 2012

  Actual Average Record
Temperature  
Mean Temperature 43 °F -  
Max Temperature 56 °F 67 °F 84 °F (2004)
Min Temperature 29 °F 39 °F 29 °F (2012)
Degree Days  
Heating Degree Days 22    
Month to date heating degree days 292  
Since 1 July heating degree days 2970  
Cooling Degree Days 0    
Month to date cooling degree days 0  
Year to date cooling degree days 0  
Moisture  
Dew Point 13 °F    
Average Humidity 39    
Maximum Humidity 63    
Minimum Humidity 14    
Precipitation  
Precipitation 0.00 in - 0.01 in (2015)
Month to date precipitation 0.20  
Year to date precipitation 0.37  
Sea Level Pressure  
Sea Level Pressure 29.84 in    
Wind  
Wind Speed 13 mph (NW)    
Max Wind Speed 26 mph    
Max Gust Speed 36 mph    
Visibility 10 miles    
Events      
T = Trace of Precipitation, MM = Missing Value Source: NWS Daily Summary

Daily Weather History Graph

Daily Weather History Graph

Search for Another Location

Airport or City:

Trip Planner

Search our weather history database for the weather conditions in past years. The results will help you decide how hot, cold, wet, or windy it might be!

Date:

Astronomy

Mar. 20, 2012 Rise Set
Actual Time 7:12 AM MDT 7:21 PM MDT
Civil Twilight 6:47 AM MDT 7:45 PM MDT
Nautical Twilight 6:18 AM MDT 8:14 PM MDT
Astronomical Twilight 5:49 AM MDT 8:43 PM MDT
Moon 5:51 AM MDT (3/20) 5:54 PM MDT (3/20)
Length of Visible Light 12h 58m
Length of Day
12h 09m
Waning Crescent, 3% of the Moon is Illuminated
Mar 20
Waning Crescent
Mar 22
New
Mar 30
First Quarter
Apr 6
Full
Apr 13
Last Quarter

Hourly Weather History & Observations

Time (MDT) Temp. Windchill Dew Point Humidity Pressure Visibility Wind Dir Wind Speed Gust Speed Precip Events Conditions
12:53 AM 30.9 °F 22.2 °F 17.1 °F 57% 29.79 in 10.0 mi WNW 10.4 mph - N/A   Clear
1:53 AM 28.9 °F 23.9 °F 17.1 °F 61% 29.80 in 10.0 mi North 4.6 mph - N/A   Clear
2:53 AM 33.1 °F 23.4 °F 17.1 °F 52% 29.79 in 10.0 mi NW 13.8 mph 20.7 mph N/A   Clear
3:53 AM 34.0 °F 26.0 °F 16.0 °F 48% 29.81 in 10.0 mi NW 10.4 mph - N/A   Clear
4:53 AM 30.9 °F 23.5 °F 16.0 °F 54% 29.80 in 10.0 mi West 8.1 mph - N/A   Clear
5:53 AM 32.0 °F 23.0 °F 16.0 °F 52% 29.81 in 10.0 mi NW 11.5 mph - N/A   Clear
6:53 AM 34.0 °F 25.0 °F 16.0 °F 48% 29.82 in 10.0 mi NNW 12.7 mph 20.7 mph N/A   Clear
7:53 AM 34.0 °F 23.4 °F 17.1 °F 50% 29.86 in 10.0 mi NW 17.3 mph 23.0 mph N/A   Clear
8:53 AM 37.9 °F 27.9 °F 18.0 °F 45% 29.87 in 10.0 mi WNW 19.6 mph 28.8 mph N/A   Clear
9:53 AM 39.9 °F 30.2 °F 16.0 °F 38% 29.87 in 10.0 mi NNW 20.7 mph 29.9 mph N/A   Clear
10:53 AM 44.1 °F 36.5 °F 15.1 °F 31% 29.87 in 10.0 mi NW 17.3 mph 29.9 mph N/A   Clear
11:53 AM 48.0 °F - 12.9 °F 24% 29.85 in 10.0 mi NW 10.4 mph 25.3 mph N/A   Clear
12:53 PM 48.9 °F - 12.0 °F 23% 29.86 in 10.0 mi NW 15.0 mph 24.2 mph N/A   Overcast
1:53 PM 50.0 °F - 10.9 °F 21% 29.84 in 10.0 mi NNW 10.4 mph 19.6 mph N/A   Mostly Cloudy
2:53 PM 52.0 °F - 9.0 °F 18% 29.80 in 10.0 mi NNW 9.2 mph 17.3 mph N/A   Mostly Cloudy
3:53 PM 53.6 °F - 6.8 °F 15% 29.86 in 10.0 mi North 18.4 mph 25.3 mph N/A   Mostly Cloudy
4:53 PM 55.0 °F - 6.1 °F 14% 29.79 in 10.0 mi North 9.2 mph 25.3 mph N/A   Mostly Cloudy
5:53 PM 55.0 °F - 9.0 °F 16% 29.78 in 10.0 mi WNW 20.7 mph 31.1 mph N/A   Partly Cloudy
6:53 PM 52.0 °F - 6.1 °F 16% 29.81 in 10.0 mi NW 15.0 mph 25.3 mph N/A   Clear
7:53 PM 48.9 °F - 6.1 °F 18% 29.85 in 10.0 mi NW 13.8 mph - N/A   Clear
8:53 PM 46.9 °F - 10.0 °F 22% 29.88 in 10.0 mi NW 11.5 mph 20.7 mph N/A   Clear
9:53 PM 45.0 °F 38.5 °F 12.0 °F 26% 29.91 in 10.0 mi NW 13.8 mph 20.7 mph N/A   Clear
10:53 PM 44.1 °F 38.1 °F 14.0 °F 30% 29.92 in 10.0 mi NW 11.5 mph - N/A   Clear
11:53 PM 41.0 °F 34.7 °F 15.1 °F 35% 29.93 in 10.0 mi NW 10.4 mph - N/A   Clear